Year,Month,Day,Hour,Minute,Value (Times are PST for temperature in C)
2019,05,25,00,00,12.10
2019,05,25,00,01,12.10
2019,05,25,00,02,12.00
2019,05,25,00,03,12.00
2019,05,25,00,04,12.00
2019,05,25,00,05,11.90
2019,05,25,00,06,11.90
2019,05,25,00,07,11.90
2019,05,25,00,08,11.90
2019,05,25,00,09,11.80
2019,05,25,00,10,11.80
2019,05,25,00,11,11.80
2019,05,25,00,12,11.70
2019,05,25,00,13,11.70
2019,05,25,00,14,11.60
2019,05,25,00,15,11.60
2019,05,25,00,16,11.60
2019,05,25,00,17,11.60
2019,05,25,00,18,11.60
2019,05,25,00,19,11.60
2019,05,25,00,20,11.50
2019,05,25,00,21,11.50
2019,05,25,00,22,11.40
2019,05,25,00,23,11.40
2019,05,25,00,24,11.40
2019,05,25,00,25,11.40
2019,05,25,00,26,11.40
2019,05,25,00,27,11.30
2019,05,25,00,28,11.30
2019,05,25,00,29,11.30
2019,05,25,00,30,11.30
2019,05,25,00,31,11.30
2019,05,25,00,32,11.30
2019,05,25,00,33,11.20
2019,05,25,00,34,11.20
2019,05,25,00,35,11.20
2019,05,25,00,36,11.20
2019,05,25,00,37,11.20
2019,05,25,00,38,11.20
2019,05,25,00,39,11.20
2019,05,25,00,40,11.20
2019,05,25,00,41,11.20
2019,05,25,00,42,11.10
2019,05,25,00,43,11.10
2019,05,25,00,44,11.10
2019,05,25,00,45,11.10
2019,05,25,00,46,11.10
2019,05,25,00,47,11.10
2019,05,25,00,48,11.00
2019,05,25,00,49,11.00
2019,05,25,00,50,11.00
2019,05,25,00,51,11.00
2019,05,25,00,52,11.00
2019,05,25,00,53,11.00
2019,05,25,00,54,10.90
2019,05,25,00,55,10.90
2019,05,25,00,56,10.90
2019,05,25,00,57,10.90
2019,05,25,00,58,10.90
2019,05,25,00,59,10.90
2019,05,25,01,00,10.90
2019,05,25,01,01,10.90
2019,05,25,01,02,10.90
2019,05,25,01,03,10.90
2019,05,25,01,04,10.90
2019,05,25,01,05,10.90
2019,05,25,01,06,10.90
2019,05,25,01,07,10.80
2019,05,25,01,08,10.80
2019,05,25,01,09,10.80
2019,05,25,01,10,10.80
2019,05,25,01,11,10.80
2019,05,25,01,12,10.80
2019,05,25,01,13,10.80
2019,05,25,01,14,10.80
2019,05,25,01,15,10.80
2019,05,25,01,16,10.80
2019,05,25,01,17,10.80
2019,05,25,01,18,10.80
2019,05,25,01,19,10.80
2019,05,25,01,20,10.70
2019,05,25,01,21,10.70
2019,05,25,01,22,10.70
2019,05,25,01,23,10.70
2019,05,25,01,24,10.60
2019,05,25,01,25,10.60
2019,05,25,01,26,10.60
2019,05,25,01,27,10.60
2019,05,25,01,28,10.50
2019,05,25,01,29,10.50
2019,05,25,01,30,10.40
2019,05,25,01,31,10.40
2019,05,25,01,32,10.40
2019,05,25,01,33,10.40
2019,05,25,01,34,10.40
2019,05,25,01,35,10.30
2019,05,25,01,36,10.30
2019,05,25,01,37,10.30
2019,05,25,01,38,10.30
2019,05,25,01,39,10.30
2019,05,25,01,40,10.20
2019,05,25,01,41,10.20
2019,05,25,01,42,10.20
2019,05,25,01,43,10.20
2019,05,25,01,44,10.20
2019,05,25,01,45,10.20
2019,05,25,01,46,10.20
2019,05,25,01,47,10.20
2019,05,25,01,48,10.20
2019,05,25,01,49,10.20
2019,05,25,01,50,10.10
2019,05,25,01,51,10.10
2019,05,25,01,52,10.10
2019,05,25,01,53,10.10
2019,05,25,01,54,10.00
2019,05,25,01,55,10.00
2019,05,25,01,56,10.00
2019,05,25,01,57,9.90
2019,05,25,01,58,9.90
2019,05,25,01,59,9.90
2019,05,25,02,00,9.90
2019,05,25,02,01,9.90
2019,05,25,02,02,9.90
2019,05,25,02,03,9.90
2019,05,25,02,04,9.90
2019,05,25,02,05,9.80
2019,05,25,02,06,9.80
2019,05,25,02,07,9.80
2019,05,25,02,08,9.80
2019,05,25,02,09,9.80
2019,05,25,02,10,9.70
2019,05,25,02,11,9.70
2019,05,25,02,12,9.70
2019,05,25,02,13,9.70
2019,05,25,02,14,9.70
2019,05,25,02,15,9.70
2019,05,25,02,16,9.70
2019,05,25,02,17,9.70
2019,05,25,02,18,9.70
2019,05,25,02,19,9.70
2019,05,25,02,20,9.70
2019,05,25,02,21,9.70
2019,05,25,02,22,9.70
2019,05,25,02,23,9.70
2019,05,25,02,24,9.70
2019,05,25,02,25,9.70
2019,05,25,02,26,9.70
2019,05,25,02,27,9.70
2019,05,25,02,28,9.70
2019,05,25,02,29,9.70
2019,05,25,02,30,9.70
2019,05,25,02,31,9.80
2019,05,25,02,32,9.80
2019,05,25,02,33,9.80
2019,05,25,02,34,9.90
2019,05,25,02,35,9.90
2019,05,25,02,36,9.90
2019,05,25,02,37,10.00
2019,05,25,02,38,10.00
2019,05,25,02,39,10.00
2019,05,25,02,40,10.00
2019,05,25,02,41,10.00
2019,05,25,02,42,10.00
2019,05,25,02,43,10.10
2019,05,25,02,44,10.10
2019,05,25,02,45,10.10
2019,05,25,02,46,10.10
2019,05,25,02,47,10.10
2019,05,25,02,48,10.10
2019,05,25,02,49,10.10
2019,05,25,02,50,10.10
2019,05,25,02,51,10.10
2019,05,25,02,52,10.10
2019,05,25,02,53,10.10
2019,05,25,02,54,10.20
2019,05,25,02,55,10.20
2019,05,25,02,56,10.20
2019,05,25,02,57,10.20
2019,05,25,02,58,10.20
2019,05,25,02,59,10.20
2019,05,25,03,00,10.20
2019,05,25,03,01,10.20
2019,05,25,03,02,10.20
2019,05,25,03,03,10.20
2019,05,25,03,04,10.20
2019,05,25,03,05,10.20
2019,05,25,03,06,10.20
2019,05,25,03,07,10.20
2019,05,25,03,08,10.10
2019,05,25,03,09,10.10
2019,05,25,03,10,10.10
2019,05,25,03,11,10.10
2019,05,25,03,12,10.10
2019,05,25,03,13,10.00
2019,05,25,03,14,10.00
2019,05,25,03,15,10.00
2019,05,25,03,16,10.00
2019,05,25,03,17,10.00
2019,05,25,03,18,10.00
2019,05,25,03,19,10.00
2019,05,25,03,20,9.90
2019,05,25,03,21,9.90
2019,05,25,03,22,9.90
2019,05,25,03,23,9.90
2019,05,25,03,24,9.90
2019,05,25,03,25,9.90
2019,05,25,03,26,9.90
2019,05,25,03,27,9.90
2019,05,25,03,28,9.90
2019,05,25,03,29,9.90
2019,05,25,03,30,9.90
2019,05,25,03,31,10.00
2019,05,25,03,32,10.00
2019,05,25,03,33,10.00
2019,05,25,03,34,10.00
2019,05,25,03,35,10.00
2019,05,25,03,36,10.00
2019,05,25,03,37,10.00
2019,05,25,03,38,10.00
2019,05,25,03,39,10.00
2019,05,25,03,40,10.00
2019,05,25,03,41,10.00
2019,05,25,03,42,10.00
2019,05,25,03,43,10.00
2019,05,25,03,44,10.00
2019,05,25,03,45,10.00
2019,05,25,03,46,10.00
2019,05,25,03,47,10.00
2019,05,25,03,48,9.90
2019,05,25,03,49,9.90
2019,05,25,03,50,9.90
2019,05,25,03,51,9.90
2019,05,25,03,52,9.90
2019,05,25,03,53,9.90
2019,05,25,03,54,9.90
2019,05,25,03,55,9.90
2019,05,25,03,56,9.90
2019,05,25,03,57,9.90
2019,05,25,03,58,9.90
2019,05,25,03,59,9.90
2019,05,25,04,00,9.80
2019,05,25,04,01,9.80
2019,05,25,04,02,9.80
2019,05,25,04,03,9.80
2019,05,25,04,04,9.80
2019,05,25,04,05,9.70
2019,05,25,04,06,9.70
2019,05,25,04,07,9.70
2019,05,25,04,08,9.70
2019,05,25,04,09,9.70
2019,05,25,04,10,9.70
2019,05,25,04,11,9.70
2019,05,25,04,12,9.70
2019,05,25,04,13,9.70
2019,05,25,04,14,9.70
2019,05,25,04,15,9.70
2019,05,25,04,16,9.70
2019,05,25,04,17,9.60
2019,05,25,04,18,9.60
2019,05,25,04,19,9.60
2019,05,25,04,20,9.60
2019,05,25,04,21,9.60
2019,05,25,04,22,9.60
2019,05,25,04,23,9.60
2019,05,25,04,24,9.60
2019,05,25,04,25,9.50
2019,05,25,04,26,9.50
2019,05,25,04,27,9.50
2019,05,25,04,28,9.50
2019,05,25,04,29,9.50
2019,05,25,04,30,9.50
2019,05,25,04,31,9.50
2019,05,25,04,32,9.50
2019,05,25,04,33,9.50
2019,05,25,04,34,9.50
2019,05,25,04,35,9.50
2019,05,25,04,36,9.40
2019,05,25,04,37,9.40
2019,05,25,04,38,9.40
2019,05,25,04,39,9.40
2019,05,25,04,40,9.40
2019,05,25,04,41,9.40
2019,05,25,04,42,9.40
2019,05,25,04,43,9.40
2019,05,25,04,44,9.40
2019,05,25,04,45,9.30
2019,05,25,04,46,9.30
2019,05,25,04,47,9.30
2019,05,25,04,48,9.30
2019,05,25,04,49,9.30
2019,05,25,04,50,9.30
2019,05,25,04,51,9.30
2019,05,25,04,52,9.30
2019,05,25,04,53,9.30
2019,05,25,04,54,9.30
2019,05,25,04,55,9.30
2019,05,25,04,56,9.30
2019,05,25,04,57,9.30
2019,05,25,04,58,9.30
2019,05,25,04,59,9.30
2019,05,25,05,00,9.30
2019,05,25,05,01,9.30
2019,05,25,05,02,9.30
2019,05,25,05,03,9.20
2019,05,25,05,04,9.20
2019,05,25,05,05,9.20
2019,05,25,05,06,9.20
2019,05,25,05,07,9.20
2019,05,25,05,08,9.20
2019,05,25,05,09,9.20
2019,05,25,05,10,9.20
2019,05,25,05,11,9.20
2019,05,25,05,12,9.20
2019,05,25,05,13,9.20
2019,05,25,05,14,9.20
2019,05,25,05,15,9.20
2019,05,25,05,16,9.20
2019,05,25,05,17,9.20
2019,05,25,05,18,9.20
2019,05,25,05,19,9.20
2019,05,25,05,20,9.20
2019,05,25,05,21,9.20
2019,05,25,05,22,9.20
2019,05,25,05,23,9.20
2019,05,25,05,24,9.20
2019,05,25,05,25,9.20
2019,05,25,05,26,9.20
2019,05,25,05,27,9.20
2019,05,25,05,28,9.20
2019,05,25,05,29,9.20
2019,05,25,05,30,9.20
2019,05,25,05,31,9.20
2019,05,25,05,32,9.30
2019,05,25,05,33,9.30
2019,05,25,05,34,9.30
2019,05,25,05,35,9.30
2019,05,25,05,36,9.30
2019,05,25,05,37,9.30
2019,05,25,05,38,9.30
2019,05,25,05,39,9.30
2019,05,25,05,40,9.30
2019,05,25,05,41,9.30
2019,05,25,05,42,9.20
2019,05,25,05,43,9.20
2019,05,25,05,44,9.20
2019,05,25,05,45,9.20
2019,05,25,05,46,9.10
2019,05,25,05,47,9.10
2019,05,25,05,48,9.00
2019,05,25,05,49,9.00
2019,05,25,05,50,9.00
2019,05,25,05,51,9.00
2019,05,25,05,52,9.00
2019,05,25,05,53,9.00
2019,05,25,05,54,8.90
2019,05,25,05,55,8.90
2019,05,25,05,56,8.90
2019,05,25,05,57,8.90
2019,05,25,05,58,8.90
2019,05,25,05,59,8.90
2019,05,25,06,00,8.90
2019,05,25,06,01,8.80
2019,05,25,06,02,8.80
2019,05,25,06,03,8.80
2019,05,25,06,04,8.80
2019,05,25,06,05,8.80
2019,05,25,06,06,8.80
2019,05,25,06,07,8.80
2019,05,25,06,08,8.80
2019,05,25,06,09,8.80
2019,05,25,06,10,8.80
2019,05,25,06,11,8.70
2019,05,25,06,12,8.70
2019,05,25,06,13,8.70
2019,05,25,06,14,8.70
2019,05,25,06,15,8.70
2019,05,25,06,16,8.70
2019,05,25,06,17,8.70
2019,05,25,06,18,8.70
2019,05,25,06,19,8.70
2019,05,25,06,20,8.70
2019,05,25,06,21,8.60
2019,05,25,06,22,8.60
2019,05,25,06,23,8.60
2019,05,25,06,24,8.60
2019,05,25,06,25,8.60
2019,05,25,06,26,8.70
2019,05,25,06,27,8.70
2019,05,25,06,28,8.70
2019,05,25,06,29,8.70
2019,05,25,06,30,8.70
2019,05,25,06,31,8.70
2019,05,25,06,32,8.70
2019,05,25,06,33,8.70
2019,05,25,06,34,8.70
2019,05,25,06,35,8.70
2019,05,25,06,36,8.70
2019,05,25,06,37,8.70
2019,05,25,06,38,8.70
2019,05,25,06,39,8.70
2019,05,25,06,40,8.70
2019,05,25,06,41,8.70
2019,05,25,06,42,8.70
2019,05,25,06,43,8.70
2019,05,25,06,44,8.70
2019,05,25,06,45,8.70
2019,05,25,06,46,8.70
2019,05,25,06,47,8.70
2019,05,25,06,48,8.60
2019,05,25,06,49,8.60
2019,05,25,06,50,8.60
2019,05,25,06,51,8.60
2019,05,25,06,52,8.60
2019,05,25,06,53,8.60
2019,05,25,06,54,8.60
2019,05,25,06,55,8.70
2019,05,25,06,56,8.70
2019,05,25,06,57,8.70
2019,05,25,06,58,8.70
2019,05,25,06,59,8.70
2019,05,25,07,00,8.70
2019,05,25,07,01,8.70
2019,05,25,07,02,8.70
2019,05,25,07,03,8.70
2019,05,25,07,04,8.70
2019,05,25,07,05,8.70
2019,05,25,07,06,8.70
2019,05,25,07,07,8.70
2019,05,25,07,08,8.70
2019,05,25,07,09,8.70
2019,05,25,07,10,8.70
2019,05,25,07,11,8.70
2019,05,25,07,12,8.70
2019,05,25,07,13,8.70
2019,05,25,07,14,8.70
2019,05,25,07,15,8.70
2019,05,25,07,16,8.70
2019,05,25,07,17,8.70
2019,05,25,07,18,8.70
2019,05,25,07,19,8.60
2019,05,25,07,20,8.60
2019,05,25,07,21,8.60
2019,05,25,07,22,8.60
2019,05,25,07,23,8.60
2019,05,25,07,24,8.60
2019,05,25,07,25,8.60
2019,05,25,07,26,8.60
2019,05,25,07,27,8.60
2019,05,25,07,28,8.60
2019,05,25,07,29,8.60
2019,05,25,07,30,8.70
2019,05,25,07,31,8.70
2019,05,25,07,32,8.70
2019,05,25,07,33,8.70
2019,05,25,07,34,8.70
2019,05,25,07,35,8.70
2019,05,25,07,36,8.70
2019,05,25,07,37,8.70
2019,05,25,07,38,8.70
2019,05,25,07,39,8.70
2019,05,25,07,40,8.70
2019,05,25,07,41,8.70
2019,05,25,07,42,8.70
2019,05,25,07,43,8.70
2019,05,25,07,44,8.70
2019,05,25,07,45,8.70
2019,05,25,07,46,8.70
2019,05,25,07,47,8.80
2019,05,25,07,48,8.80
2019,05,25,07,49,8.80
2019,05,25,07,50,8.80
2019,05,25,07,51,8.80
2019,05,25,07,52,8.80
2019,05,25,07,53,8.80
2019,05,25,07,54,8.80
2019,05,25,07,55,8.80
2019,05,25,07,56,8.90
2019,05,25,07,57,8.90
2019,05,25,07,58,8.90
2019,05,25,07,59,8.90
2019,05,25,08,00,8.90
2019,05,25,08,01,8.90
2019,05,25,08,02,8.90
2019,05,25,08,03,8.90
2019,05,25,08,04,8.90
2019,05,25,08,05,8.90
2019,05,25,08,06,9.00
2019,05,25,08,07,9.00
2019,05,25,08,08,9.00
2019,05,25,08,09,9.10
2019,05,25,08,10,9.10
2019,05,25,08,11,9.10
2019,05,25,08,12,9.20
2019,05,25,08,13,9.20
2019,05,25,08,14,9.30
2019,05,25,08,15,9.30
2019,05,25,08,16,9.30
2019,05,25,08,17,9.40
2019,05,25,08,18,9.50
2019,05,25,08,19,9.50
2019,05,25,08,20,9.60
2019,05,25,08,21,9.60
2019,05,25,08,22,9.70
2019,05,25,08,23,9.70
2019,05,25,08,24,9.70
2019,05,25,08,25,9.80
2019,05,25,08,26,9.80
2019,05,25,08,27,9.80
2019,05,25,08,28,9.90
2019,05,25,08,29,9.90
2019,05,25,08,30,9.90
2019,05,25,08,31,9.90
2019,05,25,08,32,9.90
2019,05,25,08,33,9.90
2019,05,25,08,34,9.90
2019,05,25,08,35,9.90
2019,05,25,08,36,9.90
2019,05,25,08,37,10.00
2019,05,25,08,38,10.00
2019,05,25,08,39,10.10
2019,05,25,08,40,10.10
2019,05,25,08,41,10.10
2019,05,25,08,42,10.20
2019,05,25,08,43,10.20
2019,05,25,08,44,10.30
2019,05,25,08,45,10.30
2019,05,25,08,46,10.30
2019,05,25,08,47,10.40
2019,05,25,08,48,10.40
2019,05,25,08,49,10.40
2019,05,25,08,50,10.40
2019,05,25,08,51,10.50
2019,05,25,08,52,10.50
2019,05,25,08,53,10.60
2019,05,25,08,54,10.60
2019,05,25,08,55,10.60
2019,05,25,08,56,10.50
2019,05,25,08,57,10.50
2019,05,25,08,58,10.50
2019,05,25,08,59,10.40
2019,05,25,09,00,10.40
2019,05,25,09,01,10.50
2019,05,25,09,02,10.50
2019,05,25,09,03,10.60
2019,05,25,09,04,10.60
2019,05,25,09,05,10.60
2019,05,25,09,06,10.60
2019,05,25,09,07,10.60
2019,05,25,09,08,10.60
2019,05,25,09,09,10.60
2019,05,25,09,10,10.60
2019,05,25,09,11,10.60
2019,05,25,09,12,10.50
2019,05,25,09,13,10.50
2019,05,25,09,14,10.50
2019,05,25,09,15,10.40
2019,05,25,09,16,10.40
2019,05,25,09,17,10.30
2019,05,25,09,18,10.30
2019,05,25,09,19,10.30
2019,05,25,09,20,10.30
2019,05,25,09,21,10.30
2019,05,25,09,22,10.30
2019,05,25,09,23,10.30
2019,05,25,09,24,10.30
2019,05,25,09,25,10.30
2019,05,25,09,26,10.30
2019,05,25,09,27,10.30
2019,05,25,09,28,10.30
2019,05,25,09,29,10.20
2019,05,25,09,30,10.20
2019,05,25,09,31,10.20
2019,05,25,09,32,10.20
2019,05,25,09,33,10.20
2019,05,25,09,34,10.20
2019,05,25,09,35,10.20
2019,05,25,09,36,10.20
2019,05,25,09,37,10.20
2019,05,25,09,38,10.30
2019,05,25,09,39,10.30
2019,05,25,09,40,10.30
2019,05,25,09,41,10.30
2019,05,25,09,42,10.30
2019,05,25,09,43,10.30
2019,05,25,09,44,10.30
2019,05,25,09,45,10.40
2019,05,25,09,46,10.40
2019,05,25,09,47,10.40
2019,05,25,09,48,10.40
2019,05,25,09,49,10.50
2019,05,25,09,50,10.50
2019,05,25,09,51,10.60
2019,05,25,09,52,10.60
2019,05,25,09,53,10.60
2019,05,25,09,54,10.60
2019,05,25,09,55,10.60
2019,05,25,09,56,10.70
2019,05,25,09,57,10.70
2019,05,25,09,58,10.70
2019,05,25,09,59,10.70
2019,05,25,10,00,10.70
2019,05,25,10,01,10.80
2019,05,25,10,02,10.80
2019,05,25,10,03,10.80
2019,05,25,10,04,10.80
2019,05,25,10,05,10.90
2019,05,25,10,06,10.90
2019,05,25,10,07,10.90
2019,05,25,10,08,10.90
2019,05,25,10,09,11.00
2019,05,25,10,10,11.00
2019,05,25,10,11,11.00
2019,05,25,10,12,11.10
2019,05,25,10,13,11.10
2019,05,25,10,14,11.10
2019,05,25,10,15,11.10
2019,05,25,10,16,11.20
2019,05,25,10,17,11.20
2019,05,25,10,18,11.20
2019,05,25,10,19,11.20
2019,05,25,10,20,11.20
2019,05,25,10,21,11.30
2019,05,25,10,22,11.30
2019,05,25,10,23,11.30
2019,05,25,10,24,11.30
2019,05,25,10,25,11.30
2019,05,25,10,26,11.30
2019,05,25,10,27,11.30
2019,05,25,10,28,11.30
2019,05,25,10,29,11.30
2019,05,25,10,30,11.30
2019,05,25,10,31,11.40
2019,05,25,10,32,11.40
2019,05,25,10,33,11.40
2019,05,25,10,34,11.40
2019,05,25,10,35,11.40
2019,05,25,10,36,11.40
2019,05,25,10,37,11.40
2019,05,25,10,38,11.40
2019,05,25,10,39,11.50
2019,05,25,10,40,11.50
2019,05,25,10,41,11.50
2019,05,25,10,42,11.50
2019,05,25,10,43,11.50
2019,05,25,10,44,11.50
2019,05,25,10,45,11.50
2019,05,25,10,46,11.40
2019,05,25,10,47,11.40
2019,05,25,10,48,11.40
2019,05,25,10,49,11.50
2019,05,25,10,50,11.50
2019,05,25,10,51,11.50
2019,05,25,10,52,11.60
2019,05,25,10,53,11.60
2019,05,25,10,54,11.70
2019,05,25,10,55,11.70
2019,05,25,10,56,11.70
2019,05,25,10,57,11.80
2019,05,25,10,58,11.80
2019,05,25,10,59,11.80
2019,05,25,11,00,11.80
2019,05,25,11,01,11.80
2019,05,25,11,02,11.80
2019,05,25,11,03,11.80
2019,05,25,11,04,11.80
2019,05,25,11,05,11.80
2019,05,25,11,06,11.80
2019,05,25,11,07,11.80
2019,05,25,11,08,11.70
2019,05,25,11,09,11.70
2019,05,25,11,10,11.70
2019,05,25,11,11,11.70
2019,05,25,11,12,11.60
2019,05,25,11,13,11.60
2019,05,25,11,14,11.60
2019,05,25,11,15,11.60
2019,05,25,11,16,11.50
2019,05,25,11,17,11.50
2019,05,25,11,18,11.50
2019,05,25,11,19,11.40
2019,05,25,11,20,11.40
2019,05,25,11,21,11.40
2019,05,25,11,22,11.40
2019,05,25,11,23,11.40
2019,05,25,11,24,11.50
2019,05,25,11,25,11.50
2019,05,25,11,26,11.50
2019,05,25,11,27,11.50
2019,05,25,11,28,11.60
2019,05,25,11,29,11.60
2019,05,25,11,30,11.60
2019,05,25,11,31,11.60
2019,05,25,11,32,11.70
2019,05,25,11,33,11.70
2019,05,25,11,34,11.70
2019,05,25,11,35,11.70
2019,05,25,11,36,11.80
2019,05,25,11,37,11.80
2019,05,25,11,38,11.80
2019,05,25,11,39,11.80
2019,05,25,11,40,11.90
2019,05,25,11,41,11.90
2019,05,25,11,42,11.90
2019,05,25,11,43,12.00
2019,05,25,11,44,12.00
2019,05,25,11,45,12.10
2019,05,25,11,46,12.10
2019,05,25,11,47,12.10
2019,05,25,11,48,12.20
2019,05,25,11,49,12.20
2019,05,25,11,50,12.30
2019,05,25,11,51,12.30
2019,05,25,11,52,12.30
2019,05,25,11,53,12.40
2019,05,25,11,54,12.40
2019,05,25,11,55,12.40
2019,05,25,11,56,12.50
2019,05,25,11,57,12.50
2019,05,25,11,58,12.50
2019,05,25,11,59,12.60
2019,05,25,12,00,12.60
2019,05,25,12,01,12.60
2019,05,25,12,02,12.70
2019,05,25,12,03,12.70
2019,05,25,12,04,12.80
2019,05,25,12,05,12.80
2019,05,25,12,06,12.80
2019,05,25,12,07,12.90
2019,05,25,12,08,12.90
2019,05,25,12,09,13.00
2019,05,25,12,10,13.00
2019,05,25,12,11,13.00
2019,05,25,12,12,13.00
2019,05,25,12,13,13.00
2019,05,25,12,14,13.00
2019,05,25,12,15,13.10
2019,05,25,12,16,13.10
2019,05,25,12,17,13.10
2019,05,25,12,18,13.10
2019,05,25,12,19,13.20
2019,05,25,12,20,13.20
2019,05,25,12,21,13.20
2019,05,25,12,22,13.20
2019,05,25,12,23,13.20
2019,05,25,12,24,13.20
2019,05,25,12,25,13.30
2019,05,25,12,26,13.30
2019,05,25,12,27,13.30
2019,05,25,12,28,13.30
2019,05,25,12,29,13.30
2019,05,25,12,30,13.40
2019,05,25,12,31,13.40
2019,05,25,12,32,13.40
2019,05,25,12,33,13.40
2019,05,25,12,34,13.50
2019,05,25,12,35,13.50
2019,05,25,12,36,13.50
2019,05,25,12,37,13.60
2019,05,25,12,38,13.60
2019,05,25,12,39,13.60
2019,05,25,12,40,13.60
2019,05,25,12,41,13.60
2019,05,25,12,42,13.70
2019,05,25,12,43,13.80
2019,05,25,12,44,13.80
2019,05,25,12,45,13.90
2019,05,25,12,46,13.90
2019,05,25,12,47,14.00
2019,05,25,12,48,14.10
2019,05,25,12,49,14.20
2019,05,25,12,50,14.20
2019,05,25,12,51,14.30
2019,05,25,12,52,14.30
2019,05,25,12,53,14.40
2019,05,25,12,54,14.40
2019,05,25,12,55,14.50
2019,05,25,12,56,14.60
2019,05,25,12,57,14.60
2019,05,25,12,58,14.70
2019,05,25,12,59,14.70
2019,05,25,13,00,14.70
2019,05,25,13,01,14.70
2019,05,25,13,02,14.70
2019,05,25,13,03,14.80
2019,05,25,13,04,14.80
2019,05,25,13,05,14.80
2019,05,25,13,06,14.90
2019,05,25,13,07,14.90
2019,05,25,13,08,14.90
2019,05,25,13,09,14.90
2019,05,25,13,10,14.90
2019,05,25,13,11,14.90
2019,05,25,13,12,14.90
2019,05,25,13,13,14.90
2019,05,25,13,14,15.00
2019,05,25,13,15,15.00
2019,05,25,13,16,15.10
2019,05,25,13,17,15.10
2019,05,25,13,18,15.10
2019,05,25,13,19,15.20
2019,05,25,13,20,15.20
2019,05,25,13,21,15.20
2019,05,25,13,22,15.30
2019,05,25,13,23,15.30
2019,05,25,13,24,15.30
2019,05,25,13,25,15.30
2019,05,25,13,26,15.30
2019,05,25,13,27,15.30
2019,05,25,13,28,15.30
2019,05,25,13,29,15.40
2019,05,25,13,30,15.40
2019,05,25,13,31,15.40
2019,05,25,13,32,15.50
2019,05,25,13,33,15.60
2019,05,25,13,34,15.60
2019,05,25,13,35,15.70
2019,05,25,13,36,15.70
2019,05,25,13,37,15.80
2019,05,25,13,38,15.80
2019,05,25,13,39,15.90
2019,05,25,13,40,15.90
2019,05,25,13,41,16.00
2019,05,25,13,42,16.00
2019,05,25,13,43,16.10
2019,05,25,13,44,16.10
2019,05,25,13,45,16.20
2019,05,25,13,46,16.20
2019,05,25,13,47,16.30
2019,05,25,13,48,16.40
2019,05,25,13,49,16.50
2019,05,25,13,50,16.50
2019,05,25,13,51,16.60
2019,05,25,13,52,16.70
2019,05,25,13,53,16.70
2019,05,25,13,54,16.80
2019,05,25,13,55,16.80
2019,05,25,13,56,16.90
2019,05,25,13,57,16.90
2019,05,25,13,58,16.90
2019,05,25,13,59,16.90
2019,05,25,14,00,17.00
2019,05,25,14,01,17.00
2019,05,25,14,02,17.10
2019,05,25,14,03,17.10
2019,05,25,14,04,17.10
2019,05,25,14,05,17.10
2019,05,25,14,06,17.10
2019,05,25,14,07,17.20
2019,05,25,14,08,17.20
2019,05,25,14,09,17.30
2019,05,25,14,10,17.30
2019,05,25,14,11,17.40
2019,05,25,14,12,17.40
2019,05,25,14,13,17.50
2019,05,25,14,14,17.50
2019,05,25,14,15,17.60
2019,05,25,14,16,17.60
2019,05,25,14,17,17.60
2019,05,25,14,18,17.70
2019,05,25,14,19,17.70
2019,05,25,14,20,17.80
2019,05,25,14,21,17.80
2019,05,25,14,22,17.90
2019,05,25,14,23,17.90
2019,05,25,14,24,18.00
2019,05,25,14,25,18.00
2019,05,25,14,26,18.10
2019,05,25,14,27,18.10
2019,05,25,14,28,18.10
2019,05,25,14,29,18.10
2019,05,25,14,30,18.10
2019,05,25,14,31,18.00
2019,05,25,14,32,18.00
2019,05,25,14,33,17.90
2019,05,25,14,34,17.90
2019,05,25,14,35,17.90
2019,05,25,14,36,17.80
2019,05,25,14,37,17.80
2019,05,25,14,38,17.80
2019,05,25,14,39,17.80
2019,05,25,14,40,17.80
2019,05,25,14,41,17.80
2019,05,25,14,42,17.80
2019,05,25,14,43,17.90
2019,05,25,14,44,17.90
2019,05,25,14,45,17.90
2019,05,25,14,46,18.00
2019,05,25,14,47,18.00
2019,05,25,14,48,18.10
2019,05,25,14,49,18.20
2019,05,25,14,50,18.20
2019,05,25,14,51,18.30
2019,05,25,14,52,18.40
2019,05,25,14,53,18.40
2019,05,25,14,54,18.50
2019,05,25,14,55,18.60
2019,05,25,14,56,18.60
2019,05,25,14,57,18.70
2019,05,25,14,58,18.70
2019,05,25,14,59,18.70
2019,05,25,15,00,18.80
2019,05,25,15,01,18.80
2019,05,25,15,02,18.80
2019,05,25,15,03,18.90
2019,05,25,15,04,18.90
2019,05,25,15,05,19.00
2019,05,25,15,06,19.10
2019,05,25,15,07,19.10
2019,05,25,15,08,19.10
2019,05,25,15,09,19.10
2019,05,25,15,10,19.20
2019,05,25,15,11,19.20
2019,05,25,15,12,19.20
2019,05,25,15,13,19.20
2019,05,25,15,14,19.30
2019,05,25,15,15,19.30
2019,05,25,15,16,19.30
2019,05,25,15,17,19.30
2019,05,25,15,18,19.40
2019,05,25,15,19,19.40
2019,05,25,15,20,19.40
2019,05,25,15,21,19.40
2019,05,25,15,22,19.50
2019,05,25,15,23,19.50
2019,05,25,15,24,19.50
2019,05,25,15,25,19.60
2019,05,25,15,26,19.60
2019,05,25,15,27,19.70
2019,05,25,15,28,19.70
2019,05,25,15,29,19.70
2019,05,25,15,30,19.70
2019,05,25,15,31,19.80
2019,05,25,15,32,19.80
2019,05,25,15,33,19.80
2019,05,25,15,34,19.90
2019,05,25,15,35,19.90
2019,05,25,15,36,19.90
2019,05,25,15,37,20.00
2019,05,25,15,38,20.10
2019,05,25,15,39,20.10
2019,05,25,15,40,20.10
2019,05,25,15,41,20.10
2019,05,25,15,42,20.10
2019,05,25,15,43,20.20
2019,05,25,15,44,20.20
2019,05,25,15,45,20.20
2019,05,25,15,46,20.30
2019,05,25,15,47,20.30
2019,05,25,15,48,20.40
2019,05,25,15,49,20.40
2019,05,25,15,50,20.40
2019,05,25,15,51,20.40
2019,05,25,15,52,20.40
2019,05,25,15,53,20.40
2019,05,25,15,54,20.40
2019,05,25,15,55,20.40
2019,05,25,15,56,20.30
2019,05,25,15,57,20.30
2019,05,25,15,58,20.30
2019,05,25,15,59,20.30
2019,05,25,16,00,20.30
2019,05,25,16,01,20.40
2019,05,25,16,02,20.40
2019,05,25,16,03,20.40
2019,05,25,16,04,20.50
2019,05,25,16,05,20.50
2019,05,25,16,06,20.60
2019,05,25,16,07,20.60
2019,05,25,16,08,20.60
2019,05,25,16,09,20.70
2019,05,25,16,10,20.70
2019,05,25,16,11,20.70
2019,05,25,16,12,20.70
2019,05,25,16,13,20.70
2019,05,25,16,14,20.60
2019,05,25,16,15,20.60
2019,05,25,16,16,20.60
2019,05,25,16,17,20.60
2019,05,25,16,18,20.60
2019,05,25,16,19,20.70
2019,05,25,16,20,20.70
2019,05,25,16,21,20.70
2019,05,25,16,22,20.80
2019,05,25,16,23,20.80
2019,05,25,16,24,20.80
2019,05,25,16,25,20.80
2019,05,25,16,26,20.80
2019,05,25,16,27,20.80
2019,05,25,16,28,20.90
2019,05,25,16,29,20.90
2019,05,25,16,30,20.90
2019,05,25,16,31,20.90
2019,05,25,16,32,20.90
2019,05,25,16,33,20.90
2019,05,25,16,34,20.90
2019,05,25,16,35,20.90
2019,05,25,16,36,20.90
2019,05,25,16,37,20.90
2019,05,25,16,38,20.90
2019,05,25,16,39,20.90
2019,05,25,16,40,20.90
2019,05,25,16,41,20.90
2019,05,25,16,42,20.90
2019,05,25,16,43,21.00
2019,05,25,16,44,21.00
2019,05,25,16,45,21.10
2019,05,25,16,46,21.10
2019,05,25,16,47,21.10
2019,05,25,16,48,21.20
2019,05,25,16,49,21.20
2019,05,25,16,50,21.20
2019,05,25,16,51,21.20
2019,05,25,16,52,21.20
2019,05,25,16,53,21.10
2019,05,25,16,54,21.10
2019,05,25,16,55,21.10
2019,05,25,16,56,21.10
2019,05,25,16,57,21.10
2019,05,25,16,58,21.20
2019,05,25,16,59,21.20
2019,05,25,17,00,21.20
2019,05,25,17,01,21.10
2019,05,25,17,02,21.10
2019,05,25,17,03,21.10
2019,05,25,17,04,21.20
2019,05,25,17,05,21.20
2019,05,25,17,06,21.20
2019,05,25,17,07,21.20
2019,05,25,17,08,21.20
2019,05,25,17,09,21.30
2019,05,25,17,10,21.20
2019,05,25,17,11,21.20
2019,05,25,17,12,21.20
2019,05,25,17,13,21.20
2019,05,25,17,14,21.20
2019,05,25,17,15,21.20
2019,05,25,17,16,21.20
2019,05,25,17,17,21.30
2019,05,25,17,18,21.30
2019,05,25,17,19,21.30
2019,05,25,17,20,21.40
2019,05,25,17,21,21.40
2019,05,25,17,22,21.50
2019,05,25,17,23,21.50
2019,05,25,17,24,21.40
2019,05,25,17,25,21.40
2019,05,25,17,26,21.40
2019,05,25,17,27,21.40
2019,05,25,17,28,21.40
2019,05,25,17,29,21.40
2019,05,25,17,30,21.40
2019,05,25,17,31,21.40
2019,05,25,17,32,21.40
2019,05,25,17,33,21.40
2019,05,25,17,34,21.40